Location: Conflandey
(47.7287°N, 6.0456°E)
Time: 03:54:14
(UTC+00:00)

Cosmos 1455 Rocket - Pass Details

Date: 24 October 2021
Orbit: 604 x 630 km, 82.5° (Epoch: 05 December)

Event Time Altitude Azimuth Distance (km) Brightness Sun altitude
Rises 17:05:40 0° 177° (S) 2,891 6.6 -6.5°
Reaches altitude 10° 17:07:53 10° 174° (S) 1,994 5.7 -6.8°
Maximum altitude 17:12:15 60° 95° (E) 726 3.1 -7.6°
Drops below altitude 10° 17:16:39 10° 16° (NNE) 2,020 5.5 -8.3°
Sets 17:18:55 0° 13° (NNE) 2,934 6.3 -8.7°
